When you browse on this site, cookies collect data to enhance your experience and personalize the content and advertising you see.
Visit our Privacy Policy to learn more. By continuing to use the site, you agree to this use of cookies and data.

Hourly Weather Uster

Today, 14 August, Friday

Time Temperature Precipitation Wind Pressure Humidity
00:00 +19°C° 0 mm 1 mps 719 mmHg 85%
01:00 +19°C° 0 mm 1 mps 719 mmHg 85%
02:00 +18°C° 0.1 mm 1 mps 719 mmHg 87%
03:00 +18°C° 0.1 mm 1 mps 719 mmHg 90%
04:00 +18°C° 0.1 mm 1 mps 719 mmHg 92%
05:00 +18°C° 0.1 mm 1 mps 719 mmHg 92%
06:00 +19°C° 0.1 mm 1 mps 720 mmHg 93%
07:00 +19°C° 0.1 mm 1 mps 720 mmHg 93%
08:00 +20°C° 0.4 mm 1 mps 720 mmHg 90%
09:00 +21°C° 0.4 mm 1 mps 720 mmHg 86%
10:00 +22°C° 0.4 mm 1 mps 720 mmHg 83%
11:00 +23°C° 0.5 mm 1 mps 720 mmHg 79%
12:00 +25°C° 0.5 mm 1 mps 720 mmHg 74%
13:00 +26°C° 0.5 mm 1 mps 719 mmHg 70%
14:00 +25°C° 0.9 mm 1 mps 719 mmHg 73%
15:00 +25°C° 0.9 mm 1 mps 719 mmHg 76%
16:00 +25°C° 0.9 mm 1 mps 719 mmHg 79%
17:00 +24°C° 0.6 mm 1 mps 719 mmHg 82%
18:00 +23°C° 0.6 mm 1 mps 719 mmHg 86%
19:00 +22°C° 0.6 mm 1 mps 719 mmHg 90%
20:00 +21°C° 0.2 mm 1 mps 719 mmHg 90%
21:00 +20°C° 0.2 mm 1 mps 719 mmHg 91%
22:00 +19°C° 0.2 mm 1 mps 719 mmHg 92%
23:00 +18°C° 0 mm 1 mps 719 mmHg 92%

Tomorrow, 15 August, Saturday

Time Temperature Precipitation Wind Pressure Humidity
00:00 +18°C° 0 mm 1 mps 719 mmHg 93%
01:00 +16°C° 0 mm 1 mps 719 mmHg 93%
02:00 +16°C° 0 mm 1 mps 719 mmHg 93%
03:00 +16°C° 0 mm 1 mps 719 mmHg 94%
04:00 +16°C° 0 mm 1 mps 719 mmHg 94%
05:00 +15°C° 0 mm 0 mps 719 mmHg 93%
06:00 +16°C° 0 mm 0 mps 719 mmHg 92%
07:00 +17°C° 0 mm 0 mps 719 mmHg 91%
08:00 +19°C° 0 mm 0 mps 719 mmHg 83%
09:00 +21°C° 0 mm 0 mps 719 mmHg 75%
10:00 +25°C° 0 mm 1 mps 719 mmHg 68%
11:00 +26°C° 0 mm 1 mps 719 mmHg 63%
12:00 +28°C° 0 mm 1 mps 719 mmHg 58%
13:00 +29°C° 0 mm 1 mps 719 mmHg 53%
14:00 +29°C° 0 mm 1 mps 719 mmHg 53%
15:00 +28°C° 0 mm 1 mps 718 mmHg 52%
16:00 +28°C° 0 mm 1 mps 718 mmHg 52%
17:00 +27°C° 0 mm 1 mps 718 mmHg 60%
18:00 +25°C° 0 mm 1 mps 718 mmHg 69%
19:00 +21°C° 0 mm 0 mps 718 mmHg 77%
20:00 +20°C° 0 mm 0 mps 718 mmHg 81%
21:00 +21°C° 0 mm 1 mps 718 mmHg 85%
22:00 +19°C° 0 mm 1 mps 718 mmHg 89%
23:00 +19°C° 0 mm 1 mps 718 mmHg 89%

Day after tomorrow, 16 August, Sunday

Time Temperature Precipitation Wind Pressure Humidity
00:00 +18°C° 0 mm 1 mps 718 mmHg 90%
01:00 +18°C° 0 mm 1 mps 717 mmHg 91%
02:00 +18°C° 0 mm 1 mps 717 mmHg 91%
03:00 +15°C° 0 mm 0 mps 717 mmHg 91%
04:00 +15°C° 0 mm 0 mps 717 mmHg 92%
05:00 +16°C° 0 mm 0 mps 717 mmHg 90%
06:00 +17°C° 0 mm 0 mps 717 mmHg 88%
07:00 +18°C° 0 mm 0 mps 717 mmHg 86%
08:00 +20°C° 0.1 mm 0 mps 717 mmHg 79%
09:00 +22°C° 0.1 mm 0 mps 717 mmHg 72%
10:00 +26°C° 0.1 mm 1 mps 718 mmHg 65%
11:00 +28°C° 0.1 mm 1 mps 718 mmHg 60%
12:00 +29°C° 0.1 mm 1 mps 718 mmHg 55%
13:00 +30°C° 0.1 mm 1 mps 717 mmHg 51%
14:00 +30°C° 0 mm 1 mps 717 mmHg 49%
15:00 +30°C° 0 mm 1 mps 717 mmHg 47%
16:00 +30°C° 0 mm 1 mps 717 mmHg 45%
17:00 +28°C° 0 mm 1 mps 717 mmHg 53%
18:00 +26°C° 0 mm 1 mps 717 mmHg 62%
19:00 +22°C° 0 mm 0 mps 716 mmHg 70%
20:00 +23°C° 0 mm 1 mps 717 mmHg 71%
21:00 +22°C° 0 mm 1 mps 717 mmHg 73%
22:00 +21°C° 0 mm 1 mps 717 mmHg 74%
23:00 +20°C° 0 mm 1 mps 716 mmHg 76%

17 August, Monday

Time Temperature Precipitation Wind Pressure Humidity
00:00 +20°C° 0 mm 1 mps 716 mmHg 78%
01:00 +19°C° 0 mm 1 mps 716 mmHg 80%
02:00 +19°C° 0.1 mm 1 mps 716 mmHg 82%
03:00 +19°C° 0.1 mm 1 mps 716 mmHg 84%
04:00 +18°C° 0.1 mm 1 mps 716 mmHg 85%
05:00 +19°C° 0.1 mm 1 mps 716 mmHg 86%
06:00 +20°C° 0.1 mm 1 mps 716 mmHg 87%
07:00 +20°C° 0.1 mm 1 mps 717 mmHg 88%
08:00 +21°C° 0.1 mm 1 mps 717 mmHg 82%
09:00 +23°C° 0.1 mm 1 mps 717 mmHg 77%
10:00 +24°C° 0.1 mm 1 mps 717 mmHg 71%
11:00 +24°C° 1.1 mm 2 mps 717 mmHg 76%
12:00 +23°C° 1.1 mm 2 mps 717 mmHg 81%
13:00 +22°C° 1.1 mm 3 mps 717 mmHg 86%
14:00 +21°C° 1.2 mm 2 mps 717 mmHg 89%
15:00 +21°C° 1.2 mm 1 mps 717 mmHg 92%
16:00 +21°C° 1.2 mm 1 mps 717 mmHg 94%
17:00 +20°C° 2.5 mm 1 mps 717 mmHg 94%
18:00 +20°C° 2.5 mm 1 mps 717 mmHg 93%
19:00 +18°C° 2.5 mm 2 mps 718 mmHg 93%
20:00 +19°C° 1.2 mm 1 mps 718 mmHg 93%
21:00 +18°C° 1.2 mm 1 mps 719 mmHg 92%
22:00 +18°C° 1.2 mm 1 mps 719 mmHg 92%
23:00 +18°C° 0.1 mm 1 mps 719 mmHg 92%

18 August, Tuesday

Time Temperature Precipitation Wind Pressure Humidity
00:00 +16°C° 0.1 mm 1 mps 719 mmHg 91%
01:00 +16°C° 0.1 mm 1 mps 719 mmHg 91%
02:00 +16°C° 0 mm 1 mps 719 mmHg 91%
03:00 +15°C° 0 mm 1 mps 719 mmHg 91%
04:00 +15°C° 0 mm 1 mps 719 mmHg 91%
05:00 +16°C° 0 mm 1 mps 719 mmHg 91%
06:00 +16°C° 0 mm 1 mps 719 mmHg 90%
07:00 +18°C° 0 mm 1 mps 719 mmHg 90%
08:00 +19°C° 0.1 mm 1 mps 719 mmHg 83%
09:00 +21°C° 0.1 mm 1 mps 719 mmHg 77%
10:00 +23°C° 0.1 mm 1 mps 720 mmHg 71%
11:00 +24°C° 0.1 mm 1 mps 719 mmHg 64%
12:00 +25°C° 0.1 mm 2 mps 719 mmHg 57%
13:00 +26°C° 0.1 mm 2 mps 719 mmHg 50%
14:00 +26°C° 0.1 mm 2 mps 719 mmHg 50%
15:00 +26°C° 0.1 mm 2 mps 719 mmHg 51%
16:00 +26°C° 0.1 mm 2 mps 719 mmHg 51%
17:00 +24°C° 0.1 mm 2 mps 719 mmHg 61%
18:00 +22°C° 0.1 mm 1 mps 719 mmHg 70%
19:00 +20°C° 0.1 mm 1 mps 719 mmHg 80%
20:00 +19°C° 0 mm 1 mps 719 mmHg 82%
21:00 +18°C° 0 mm 1 mps 720 mmHg 85%
22:00 +16°C° 0 mm 1 mps 720 mmHg 88%
23:00 +15°C° 0 mm 1 mps 720 mmHg 89%

19 August, Wednesday

Time Temperature Precipitation Wind Pressure Humidity
00:00 +15°C° 0 mm 1 mps 720 mmHg 89%
01:00 +15°C° 0 mm 1 mps 720 mmHg 90%
02:00 +14°C° 0 mm 1 mps 720 mmHg 90%
03:00 +14°C° 0 mm 1 mps 719 mmHg 90%
04:00 +14°C° 0 mm 1 mps 719 mmHg 90%
05:00 +15°C° 0 mm 1 mps 719 mmHg 88%
06:00 +16°C° 0 mm 1 mps 719 mmHg 87%
07:00 +16°C° 0 mm 1 mps 719 mmHg 86%
08:00 +17°C° 0 mm 0 mps 719 mmHg 77%
09:00 +20°C° 0 mm 0 mps 720 mmHg 69%
10:00 +22°C° 0 mm 0 mps 720 mmHg 61%
11:00 +25°C° 0 mm 1 mps 720 mmHg 56%
12:00 +26°C° 0 mm 1 mps 720 mmHg 50%
13:00 +27°C° 0 mm 1 mps 720 mmHg 45%
14:00 +27°C° 0 mm 1 mps 719 mmHg 45%
15:00 +27°C° 0 mm 1 mps 719 mmHg 46%
16:00 +26°C° 0 mm 1 mps 719 mmHg 46%
17:00 +25°C° 0 mm 1 mps 718 mmHg 55%
18:00 +21°C° 0 mm 0 mps 718 mmHg 64%
19:00 +19°C° 0 mm 0 mps 718 mmHg 73%
20:00 +18°C° 0 mm 0 mps 718 mmHg 74%
21:00 +19°C° 0 mm 1 mps 718 mmHg 75%
22:00 +18°C° 0 mm 1 mps 718 mmHg 77%
23:00 +16°C° 0 mm 1 mps 718 mmHg 78%
Show more